This is the latest recevied weather packets stored in our database for station/object SM0UQT-10. If no packets are shown the sender has not sent any weather packets the latest 10 day(s).
| Time | Temp. | Humidity | Pressure | Rain* | Wind** | Luminosity | Snow |
|---|---|---|---|---|---|---|---|
| 1777307442 | 25° C | 26% | 1021.4 hPa | - | - | - | - |
| 1777307407 | 25° C | 26% | 1021.4 hPa | - | - | - | - |
| 1777306544 | 25° C | 27% | 1021.4 hPa | - | - | - | - |
| 1777306506 | 25° C | 27% | 1021.4 hPa | - | - | - | - |
| 1777305647 | 24.44° C | 26% | 1021.5 hPa | - | - | - | - |
| 1777305606 | 24.44° C | 26% | 1021.5 hPa | - | - | - | - |
| 1777304708 | 23.33° C | 25% | 1021.3 hPa | - | - | - | - |
| 1777303806 | 24.44° C | 26% | 1021.2 hPa | - | - | - | - |
| 1777302906 | 23.89° C | 26% | 1021.3 hPa | - | - | - | - |
| 1777302037 | 20° C | 29% | 1021.3 hPa | - | - | - | - |
| 1777302005 | 20° C | 29% | 1021.3 hPa | - | - | - | - |
| 1777301925 | 21.67° C | 30% | 1021.3 hPa | - | - | - | - |
| 1777300976 | 25° C | 25% | 1021.2 hPa | - | - | - | - |
| 1777300076 | 24.44° C | 26% | 1021 hPa | - | - | - | - |
| 1777299272 | 16.67° C | 24% | 1021 hPa | - | - | - | - |
| 1777299230 | 16.67° C | 24% | 1021 hPa | - | - | - | - |
| 1777298330 | 17.22° C | 24% | 1021 hPa | - | - | - | - |
| 1777297429 | 18.33° C | 25% | 1020.9 hPa | - | - | - | - |
| 1777296529 | 18.33° C | 24% | 1020.8 hPa | - | - | - | - |
| 1777295629 | 18.33° C | 25% | 1021.1 hPa | - | - | - | - |
| 1777294729 | 22.78° C | 28% | 1021.1 hPa | - | - | - | - |
| 1777293829 | 22.78° C | 28% | 1021 hPa | - | - | - | - |
| 1777292929 | 22.78° C | 28% | 1021 hPa | - | - | - | - |
| 1777292029 | 22.78° C | 27% | 1021 hPa | - | - | - | - |
| 1777291129 | 23.33° C | 27% | 1020.8 hPa | - | - | - | - |
* Rain since midnight (hover to see other rain measurements)
** Current wind speed in m/s (hover to see current wind gust speed)